Tracking 22454 objects as of 5-Mar-2021
HD Live streaming from Space Station
objects crossing your sky now

FREGAT DEB

Track FREGAT DEB now!
10-day predictions


NORAD ID: 45906
Int'l Code: 2011-037EB
Perigee: 333.9 km
Apogee: 1,443.7 km
Inclination: 51.9 °
Period: 102.6 minutes
Semi major axis: 7259 km
RCS: Unknown
Launch date: July 18, 2011
Source: Commonwealth of Independent States (former USSR) (CIS)
Launch site: TYURATAM MISSILE AND SPACE COMPLEX (TTMTR)

Note: This is SATELLITE DEBRIS
aabbcc
Your satellite tracking list
Your tracking list is empty




NASA's NSSDC Master Catalog

Two Line Element Set (TLE):
1 45906U 11037EB  21053.18460777  .01111170  00000-0  35448-1 0  9994
2 45906  51.8886  10.7768 0764315 218.5242 135.8709 14.03511275 27079
Source of the keplerian elements: AFSPC